• Join FlightAware (Why Join?)
  • Login
  • US Flag 
08:30AM EDT


 

Airport Tracker/Info


-or-


 

Live Flight TrackerFlight Track Log ✈ N418CT ✈ 31-Jul-2013 ✈ KMMU - KPWM

Flight Track Log - Related Links

Times and Time Zones

All times are in EDT time to prevent confusion due to time zone crossing. See the N418CT flight status page for this flight to view local times or setup timezone preferences in your user account.

Time Position Orientation Groundspeed Altitude Reporting Facility
EDT Latitude Longitude Course Direction KTS MPH feet Rate Location/Type
10:22AM 40.8667 -74.3500 46° Northeast 247 284 3,900  Level New York TRACON
10:23AM 40.9333 -74.3167 21° North 263 303 5,900 1,020 Climbing New York TRACON
10:24AM 41.0000 -74.2500 37° Northeast 284 327 6,000  Climbing New York TRACON
10:25AM 41.0667 -74.2000 29° Northeast 272 313 6,000 120 Level New York TRACON
10:26AM 41.1333 -74.1500 29° Northeast 260 299 6,300 900 Climbing New York TRACON
10:27AM 41.1916 -73.8823 46° Northeast  Level Estimated
10:27AM 41.1667 -74.0667 62° Northeast 285 328 7,800  Level New York TRACON
10:28AM 41.2000 -73.9667 66° East 294 338 9,700 2,220 Climbing New York TRACON
10:30AM 41.2511 -73.7183 75° East 317 365 15,300 2,400 Climbing Boston Center
10:31AM 41.2753 -73.6056 74° East 312 359 17,700 1,860 Climbing Boston Center
10:32AM 41.3281 -73.5208 50° Northeast 318 366 19,000 1,380 Climbing Boston Center
10:33AM 41.3956 -73.4336 44° Northeast 323 372 20,500 1,440 Climbing Boston Center
10:34AM 41.4875 -73.4183 North 314 361 22,200 1,680 Climbing Boston Center
10:35AM 41.6000 -73.4172 360° North 314 361 24,300 1,380 Climbing Boston Center
10:36AM 41.6981 -73.4131 North 334 384 25,000 300 Climbing Boston Center
10:37AM 41.8064 -73.4064 North 363 418 25,000  Level Boston Center
10:38AM 41.9150 -73.4025 North 381 438 25,000  Level Boston Center
10:39AM 42.0211 -73.3958 North 381 438 25,000  Level Boston Center
10:40AM 42.1358 -73.3864 North 391 450 25,000  Level Boston Center
10:41AM 42.2364 -73.3347 21° North 396 456 25,000  Level Boston Center
10:42AM 42.3081 -73.2122 52° Northeast 385 443 25,000  Level Boston Center
10:43AM 42.3819 -73.0808 53° Northeast 406 467 25,000  Level Boston Center
10:44AM 42.4556 -72.9522 52° Northeast 417 480 25,000  Level Boston Center
10:45AM 42.5247 -72.8289 53° Northeast 417 480 25,000 -120 Level Boston Center
10:46AM 42.5981 -72.7025 52° Northeast 417 480 24,800 -600 Descending Boston Center
10:47AM 42.6714 -72.5814 51° Northeast 417 480 23,800 -900 Descending Boston Center
10:48AM 42.7547 -72.4428 51° Northeast 417 480 23,100 -960 Descending Boston Center
10:49AM 42.8192 -72.3242 53° Northeast 417 480 22,000 -1,020 Descending Boston Center
10:50AM 42.8775 -72.2078 56° Northeast 416 479 21,100 -1,020 Descending Boston Center
10:51AM 42.9603 -72.0569 53° Northeast 411 473 20,000 -1,020 Descending Boston Center
10:52AM 43.0308 -71.9344 52° Northeast 411 473 19,100 -540 Descending Boston Center
10:53AM 43.0969 -71.8144 53° Northeast 411 473 19,000 -300 Descending Boston Center
10:54AM 43.1628 -71.6914 54° Northeast 405 466 18,600 -960 Descending Boston Center
10:55AM 43.2308 -71.5711 52° Northeast 405 466 17,100 -1,500 Descending Boston Center
10:56AM 43.2781 -71.4847 53° Northeast 400 460 15,600 -1,920 Descending Boston Center
10:57AM 43.3578 -71.3322 54° Northeast 382 440 13,300 -2,040 Descending Boston Center
10:58AM 43.4192 -71.2194 53° Northeast 376 433 11,600 -1,200 Descending Boston Center
10:59AM 43.4681 -71.1128 58° Northeast 346 398 11,000 -300 Descending Boston Center
11:00AM 43.4958 -70.9919 72° East 330 380 11,000 -780 Level Boston Center
11:01AM 43.5192 -70.8769 74° East 319 367 9,500 -1,620 Descending Boston Center
11:02AM 43.5447 -70.7672 72° East 306 352 7,800 -1,440 Descending Boston Center
11:03AM 43.5642 -70.6722 74° East 286 329 6,700 -420 Descending Boston Center
11:04AM 43.5731 -70.5689 83° East 249 287 7,000 -180 Climbing Boston Center
11:05AM 43.5486 -70.4864 112° Southeast 242 278 6,400 -1,140 Descending Boston Center
11:06AM 43.5303 -70.3811 103° East 252 290 4,800 -1,440 Descending Boston Center
11:07AM 43.5286 -70.2981 92° East 246 283 3,600 -1,020 Descending Boston Center
11:08AM 43.5331 -70.2064 86° East 226 260 2,800 -600 Descending Boston Center
11:09AM 43.5678 -70.1678 39° Northeast 184 212 2,500 -540 Descending Boston Center
11:10AM 43.6242 -70.1742 355° North 171 197 1,800 -600 Descending Boston Center
11:11AM 43.6583 -70.2131 321° Northwest 171 197 1,400 -600 Descending Boston Center
11:12AM 43.6428 -70.2711 250° West 143 165 600 -720 Descending Boston Center
11:14AM 43.6333 -70.3000 328° Northwest  Level FlightAware Approximate
11:21AM 43.6456 -70.3086 328° Northwest  Level Estimated
11:22AM 43.6456 -70.3086 328° Northwest  Level Estimated